{"data":{"norad_id":87335,"epoch":"2026-05-23T19:52:19.676928Z","epoch_age_seconds":179778,"freshness":"STALE","line1":"1 87335U          26143.82800552  .00012800  00000+0  65833-2 0  9999","line2":"2 87335  89.9800 267.8176 0082020  75.2921 285.7339 14.13438339409826","mean_motion":14.13438339,"eccentricity":0.008202,"inclination_deg":89.98,"raan_deg":267.8176,"arg_perigee_deg":75.2921,"mean_anomaly_deg":285.7339,"bstar":0.0065833,"rev_number":40982,"period_min":101.87922318697,"perigee_km":788.36387162969,"apogee_km":906.89534708963,"semimajor_km":7225.7666093597,"source":"CELESTRAK","updated_at":"2026-05-25T13:38:11.669320Z"}}